Hauptseite
METAR-TAF:

METAR-TAF

Flughäfen :

Bohrplattform

P11-b, Niederlande

Breite: 52-21-36N, Länge: 3-20-30E, Höhe: 24 m

Beobachtung

Neuester Wetterbericht von vor 36 Minuten, um 22:25 UTC
Wind 16 kt aus Ost
Temperatur 11°C
Luftfeuchtigkeit 71%
Luftdruck 1028 hPa
Sichtweite 10 km oder mehr

METAR: EHPG 162225Z AUTO 09016KT 9999 NCD 11/06 Q1028 W///H///

Zeit: 00:01 (23:01 UTC)


TAF: fehlend

Wetterbeobachtungen und Prognosen von mehr als 4000 Flughäfen (METAR und TAF Bericht).

Die verfügbaren Stationen werden durch gelbe und rote Markierungen auf der Karte dargestellt.

Führen Sie die Maus auf sie, um den Namen der Station zu sehen.

Darauf klicken, um die Beobachtung von Wetterbeobachtungen und Prognosen zu sehen.

Um die Karte zu ändern : klicken Sie auf den grünen Tasten mit einem schwarzen Kreuz Zum Vergrößern, auf den grünen Button mit einem Gedankenstrich zu verkleinern, oder auf die grünen Pfeile für benachbarte Karten.


METAR-TAF: